DW5542 Weather Reports


Display with metric or nautical units.
time (UTC)temp
F
wind
direction
speed
MPH
gust
MPH
rain 1hr
in
rain 24hr
in
rain mn
in
humidity
%
barometer
mb
20260507163032 66 111 0.0 0.0 0.00 0.01 0.01 75 1009.4
20260507161536 66 107 0.0 4.0 0.00 0.01 0.01 74 1009.2
20260507160037 66 101 0.0 0.0 0.00 0.01 0.01 74 1009.1
20260507154531 66 144 0.0 5.0 0.00 0.01 0.01 76 1009.1
20260507153029 66 121 0.0 10.0 0.00 0.01 0.01 75 1009.1
20260507151529 66 123 0.0 7.0 0.00 0.01 0.01 75 1009.0
20260507150028 67 125 0.0 1.0 0.00 0.01 0.01 75 1009.1
20260507144531 67 100 0.0 8.0 0.00 0.01 0.01 77 1009.2
20260507143025 67 143 0.0 8.0 0.00 0.01 0.01 76 1009.5
20260507141524 67 104 0.0 5.0 0.00 0.01 0.01 77 1009.4
20260507140022 67 100 1.0 11.0 0.00 0.01 0.01 74 1009.6
20260507134523 68 91 0.0 6.0 0.00 0.01 0.01 69 1009.7
20260507133020 69 114 0.0 4.0 0.00 0.01 0.01 65 1009.8
20260507131527 69 108 0.0 3.0 0.00 0.01 0.01 70 1009.7
20260507130019 68 80 0.0 2.0 0.00 0.01 0.01 69 1009.9
20260507124519 66 91 0.0 10.0 0.00 0.01 0.01 73 1010.1
20260507123014 65 100 0.0 4.0 0.01 0.01 0.01 80 1010.1
20260507121512 63 127 0.0 0.0 0.01 0.01 0.01 81 1010.4
20260507120027 62 136 0.0 2.0 0.01 0.01 0.01 82 1010.8
20260507114509 61 102 0.0 0.0 0.01 0.01 0.01 82 1010.8
20260507113032 61 84 0.0 1.0 0.00 0.00 0.00 82 1011.1
20260507111509 61 119 0.0 9.0 0.00 0.00 0.00 78 1011.1
20260507110010 65 95 1.0 15.0 0.00 0.00 0.00 76 1011.3
20260507104505 66 108 0.0 8.0 0.00 0.00 0.00 73 1011.2
20260507103008 66 107 0.0 7.0 0.00 0.00 0.00 73 1011.1
20260507101507 66 104 1.0 12.0 0.00 0.00 0.00 71 1011.1
20260507100002 67 108 0.0 9.0 0.00 0.00 0.00 68 1011.1
20260507094502 67 91 0.0 5.0 0.00 0.00 0.00 67 1011.1
20260507093059 67 105 0.0 8.0 0.00 0.00 0.00 68 1011.1
20260507091557 67 139 0.0 8.0 0.00 0.00 0.00 68 1011.1
20260507090055 66 97 0.0 7.0 0.00 0.00 0.00 70 1011.0
20260507084555 65 110 0.0 8.0 0.00 0.00 0.00 73 1011.1
20260507083050 65 110 0.0 3.0 0.00 0.00 0.00 74 1011.1
20260507081550 64 100 0.0 6.0 0.00 0.00 0.00 75 1011.1
20260507080048 64 99 0.0 8.0 0.00 0.00 0.00 75 1011.1
20260507074549 64 97 0.0 2.0 0.00 0.00 0.00 73 1011.1
20260507073059 64 96 0.0 2.0 0.00 0.00 0.00 72 1011.0
20260507071542 63 97 0.0 7.0 0.00 0.00 0.00 73 1010.9
20260507070043 63 99 0.0 2.0 0.00 0.00 0.00 72 1010.7
20260507064544 62 94 0.0 0.0 0.00 0.00 0.00 71 1010.6
20260507063040 58 344 0.0 0.0 0.00 0.00 0.00 72 1010.6
20260507061537 56 344 0.0 0.0 0.00 0.00 0.00 72 1010.6
20260507060032 55 344 0.0 0.0 0.00 0.00 0.00 73 1010.5
20260507054531 54 344 0.0 0.0 0.00 0.00 0.00 73 1010.5
20260507053035 53 344 0.0 0.0 0.00 0.00 0.00 75 1010.5
20260507051529 0 0.0 0.0 0.00 0.00 0.00 1010.3
20260507050024 0 0.0 0.0 0.00 0.00 0.00 1009.9
20260507044519 0 0.0 0.0 0.00 0.00 0.00 1009.8
20260507043017 52 344 0.0 0.0 0.00 0.00 0.00 73 1009.6
20260507041514 53 344 0.0 0.0 0.00 0.00 0.00 73 1009.7
20260507040013 53 344 0.0 0.0 0.00 0.00 0.00 73 1009.7
20260507034511 53 345 0.0 0.0 0.00 0.00 0.00 73 1009.8
20260507033010 53 347 0.0 0.0 0.00 0.00 0.00 74 1009.9
20260507031507 53 332 0.0 0.0 0.00 0.00 0.00 74 1010.0
20260507030007 54 326 0.0 0.0 0.00 0.00 0.00 74 1010.1
20260507024503 54 332 0.0 0.0 0.00 0.00 0.00 71 1010.1
20260507023002 54 334 0.0 0.0 0.00 0.00 0.00 72 1010.1
20260507021501 54 338 0.0 0.0 0.00 0.00 0.00 73 1010.0
20260507014556 55 322 0.0 0.0 0.00 0.00 0.00 74 1010.2
20260507013111 56 347 0.0 0.0 0.00 0.00 0.00 71 1010.1
20260507011553 56 20 0.0 0.0 0.00 0.00 0.00 72 1010.1
20260507010053 56 19 0.0 0.0 0.00 0.00 0.00 73 1010.2
20260507004548 57 39 0.0 0.0 0.00 0.00 0.00 73 1010.3
20260507003045 56 15 0.0 0.0 0.00 0.00 0.00 74 1010.5
20260507001605 56 37 0.0 0.0 0.00 0.00 0.00 75 1010.6
20260507000042 57 1 0.0 0.0 0.00 0.00 0.00 75 1010.7
20260506234549 57 16 0.0 0.0 0.00 0.00 0.00 76 1010.8
20260506233039 57 9 0.0 0.0 0.00 0.00 0.00 75 1010.8
20260506231537 58 23 0.0 0.0 0.00 0.00 0.00 77 1010.9
20260506230035 58 13 0.0 0.0 0.00 0.00 0.00 76 1010.9
20260506224532 59 31 0.0 0.0 0.00 0.00 0.00 77 1010.9
20260506223032 59 31 0.0 0.0 0.00 0.00 0.00 77 1011.1
20260506221528 59 18 0.0 0.0 0.00 0.00 0.00 77 1011.0
20260506220034 59 19 0.0 0.0 0.00 0.00 0.00 77 1011.0
20260506214527 60 100 0.0 0.0 0.00 0.00 0.00 75 1011.0
20260506213024 60 114 0.0 0.0 0.00 0.00 0.00 74 1010.9
20260506211523 61 114 0.0 0.0 0.00 0.00 0.00 73 1010.9
20260506210022 62 114 0.0 0.0 0.00 0.00 0.00 72 1010.7
20260506204519 62 114 0.0 0.0 0.00 0.00 0.00 71 1010.6
20260506203018 63 114 0.0 0.0 0.00 0.00 0.00 71 1010.4
20260506201517 63 114 0.0 0.0 0.00 0.00 0.00 71 1010.4
20260506200017 63 114 0.0 0.0 0.00 0.00 0.00 70 1010.3
20260506194526 63 114 0.0 0.0 0.00 0.00 0.00 69 1010.0
20260506193015 64 116 0.0 0.0 0.00 0.00 0.00 69 1009.8
20260506191515 64 144 0.0 0.0 0.00 0.00 0.00 67 1009.9
20260506190014 64 149 0.0 0.0 0.00 0.00 0.00 66 1009.8
20260506184513 65 170 0.0 0.0 0.00 0.00 0.00 66 1009.6
20260506183012 65 162 0.0 3.0 0.00 0.00 0.00 66 1009.4
20260506181512 65 109 0.0 1.0 0.00 0.00 0.00 66 1009.2
20260506180012 65 129 0.0 0.0 0.00 0.00 0.00 65 1009.0
20260506174511 65 162 0.0 3.0 0.00 0.00 0.00 64 1009.1
20260506173011 66 135 0.0 1.0 0.00 0.00 0.00 63 1009.0
20260506171508 66 132 0.0 1.0 0.00 0.00 0.00 64 1009.2
20260506170007 67 156 0.0 4.0 0.00 0.00 0.00 63 1009.3
20260506164512 67 110 0.0 4.0 0.00 0.00 0.00 62 1009.4